Weather History for PHKO - May, 2013

Change the Weather History Date:

Sunday, May 19, 2013

  Actual Average Record
Temperature  
Mean Temperature 80 °F -  
Max Temperature 84 °F 80 °F 91 °F (1986)
Min Temperature 73 °F 70 °F 69 °F (1985)
Cooling Degree Days 14    
Growing Degree Days 30 (Base 50)    
Moisture  
Dew Point 67 °F    
Average Humidity 65    
Maximum Humidity 82    
Minimum Humidity 55    
Precipitation  
Precipitation 0.04 in - - ()
Sea Level Pressure  
Sea Level Pressure 29.95 in    
Wind  
Wind Speed 7 mph (SSW)    
Max Wind Speed 16 mph    
Max Gust Speed -    
Visibility 10 miles    
Events Rain    
Averages and records for this station are not official NWS values.
T = Trace of Precipitation, MM = Missing Value Source: NWS Daily Summary

Daily Weather History Graph

Daily Weather History Graph

Search for Another Location

Airport or City:

Trip Planner

Search our weather history database for the weather conditions in past years. The results will help you decide how hot, cold, wet, or windy it might be!

Date:

Astronomy

May. 19, 2013 Rise Set
Actual Time 5:47 AM HST 6:54 PM HST
Civil Twilight 5:23 AM HST 7:18 PM HST
Nautical Twilight 4:55 AM HST 7:46 PM HST
Astronomical Twilight 4:26 AM HST 8:15 PM HST
Moon 1:52 PM HST (5/19) 1:30 AM HST (5/19)
Length of Visible Light 13h 55m
Length of Day
13h 07m
Waxing Gibbous, 67% of the Moon is Illuminated
May 19
Waxing Gibbous
May 24
Full
May 31
Last Quarter
Jun 8
New
Jun 16
First Quarter

Hourly Weather History & Observations

Time (HST) Temp. Heat Index Dew Point Humidity Pressure Visibility Wind Dir Wind Speed Gust Speed Precip Events Conditions
12:53 AM 78.1 °F - 66.0 °F 66% 29.98 in 10.0 mi Calm Calm - N/A   Overcast
1:53 AM 77.0 °F - 66.0 °F 69% 29.96 in 10.0 mi NE 3.5 mph - N/A   Overcast
2:53 AM 78.1 °F - 66.0 °F 66% 29.96 in 10.0 mi SW 4.6 mph - N/A   Overcast
3:53 AM 78.1 °F - 64.0 °F 62% 29.96 in 10.0 mi SSW 3.5 mph - N/A   Overcast
4:53 AM 75.0 °F - 66.0 °F 73% 29.96 in 10.0 mi NE 4.6 mph - N/A   Scattered Clouds
5:53 AM 75.0 °F - 66.0 °F 73% 29.96 in 10.0 mi East 3.5 mph - N/A   Overcast
6:53 AM 75.9 °F - 66.0 °F 71% 29.98 in 10.0 mi ENE 3.5 mph - N/A   Clear
7:53 AM 79.0 °F - 64.9 °F 62% 29.99 in 10.0 mi WSW 4.6 mph - N/A   Mostly Cloudy
8:53 AM 80.1 °F 82.3 °F 66.9 °F 64% 29.99 in 10.0 mi West 5.8 mph - N/A   Clear
9:53 AM 82.0 °F 84.1 °F 66.0 °F 58% 29.98 in 10.0 mi WSW 6.9 mph - N/A   Mostly Cloudy
10:53 AM 81.0 °F 83.3 °F 66.9 °F 62% 29.98 in 10.0 mi SW 11.5 mph - N/A   Mostly Cloudy
11:53 AM 84.0 °F 86.5 °F 66.9 °F 56% 29.96 in 10.0 mi SSW 13.8 mph - N/A   Scattered Clouds
12:53 PM 84.9 °F 87.6 °F 66.9 °F 55% 29.93 in 10.0 mi SSW 15.0 mph - N/A   Clear
1:53 PM 82.9 °F 85.4 °F 66.9 °F 58% 29.92 in 10.0 mi SSW 13.8 mph - N/A   Clear
2:53 PM 82.9 °F 85.4 °F 66.9 °F 58% 29.91 in 10.0 mi South 16.1 mph - N/A   Scattered Clouds
3:53 PM 82.9 °F 85.4 °F 66.9 °F 58% 29.91 in 10.0 mi SSW 13.8 mph - N/A   Mostly Cloudy
4:43 PM 82.4 °F 84.6 °F 66.2 °F 58% 29.90 in 10.0 mi SSW 13.8 mph - N/A   Overcast
4:53 PM 82.0 °F 84.5 °F 66.9 °F 60% 29.91 in 10.0 mi SSW 13.8 mph - N/A   Overcast
5:53 PM 81.0 °F 83.3 °F 66.9 °F 62% 29.91 in 10.0 mi SSW 12.7 mph - N/A   Mostly Cloudy
6:53 PM 79.0 °F - 66.9 °F 66% 29.93 in 10.0 mi South 12.7 mph - N/A   Partly Cloudy
7:53 PM 78.1 °F - 68.0 °F 71% 29.95 in 10.0 mi South 10.4 mph - N/A   Scattered Clouds
8:53 PM 78.1 °F - 68.0 °F 71% 29.96 in 10.0 mi South 9.2 mph - N/A   Mostly Cloudy
9:53 PM 78.1 °F - 68.0 °F 71% 29.97 in 10.0 mi South 10.4 mph - N/A   Scattered Clouds
10:53 PM 77.0 °F - 66.0 °F 69% 29.98 in 10.0 mi SE 9.2 mph - N/A   Overcast
11:53 PM 73.9 °F - 68.0 °F 82% 29.97 in 10.0 mi SE 6.9 mph - 0.04 in Rain Light Rain